Simultaneous Nadir Overpasses (SNOs) Predictions

Prediction of SNOs between LANDSAT-8 and NOAA-19 Satellite Orbit:

Table of predicted SNOs for the next 14.0 days since TLE Epoch: 5/25/2019
Index Date (LANDSAT-8) Time (LANDSAT-8) Lat,Lon (LANDSAT-8) SZA (LANDSAT-8 ) Date (NOAA-19) Time (NOAA-19) Lat,Lon (NOAA-19) SZA (NOAA-19 ) Distance(km) Time Diff (sec)
1 05/25/2019 08:03:10 78.73, 78.37 58.49 05/25/2019 08:03:19 78.77, 78.39 58.53 4.03 9
2 05/27/2019 13:36:55 -78.77, 175.17 121.85 05/27/2019 13:36:44 -78.75, 175.25 121.87 3.24 11
3 05/29/2019 19:10:39 78.79, -88.17 57.82 05/29/2019 19:10:11 78.79, -88.32 57.80 3.36 28
4 05/29/2019 20:00:08 -78.72, 79.11 122.28 05/29/2019 20:01:11 -78.76, 79.15 122.22 3.88 63
5 06/01/2019 00:44:25 -78.79, 8.41 122.51 06/01/2019 00:43:38 -78.80, 8.31 122.52 2.32 47
6 06/01/2019 01:33:51 78.78, 175.97 57.47 06/01/2019 01:34:36 78.76, 175.90 57.46 2.92 45
7 06/03/2019 06:18:09 78.80, 105.03 57.21 06/03/2019 06:17:02 78.79, 105.14 57.18 2.93 67
8 06/03/2019 07:07:37 -78.78, -87.46 122.83 06/03/2019 07:08:04 -78.78, -87.58 122.83 2.79 27
9 06/05/2019 12:41:21 78.79, 9.14 56.91 06/05/2019 12:41:28 78.79, 9.08 56.92 1.60 7
10 06/07/2019 18:15:07 -78.79, 105.71 123.33 06/07/2019 18:14:56 -78.79, 105.85 123.32 3.04 11




NCC Satellite Simultaneous Nadir Overpasses (SNOs) Prediction Service
